Content
SEND FEEDBACK

Daily
Averages
Monthly
Summary
United States of America

STATEN ISLAND, NEW YORK


Home > North America > United States > New York
Elevation: 152 feet     Latitude: 40 35N     Longitude: 074 09W

WEATHER
 
SELECT A DAY
Number of Records: 189,740;   Date Range: 1/1/95 - 8/12/14
 
SHARE

PRINT THIS DATA

[ ← Previous Day ]
WEATHER ALMANAC - JULY 28, 2013
[ Next Day → ]
[ °C ]   °F
Weather ElementAverageHighLow
Temperature73.7 °F79 °F (3:51 pm)69.1 °F (3:51 am)
Dewpoint69.3 °F72 °F (6:51 pm)66 °F (8:51 am)
Humidity86.2 %94 % (6:59 pm)69 % (3:51 pm)
Barometer29.96 in29.99 in (6:51 am)29.92 in (4:51 pm)
Wind Speed5.7 mph12.7 mph (4:51 pm)
Wind Gust20.7 mph (3:51 pm)
Weather ElementAverage
Visibility8.4 mi
Wind DirectionESE (111.8 °)

Weather ElementTotal
Precipitation0.57 in
Cooling Degree Days9.1 (Base 65)
Growing Degree Days24.1 (Base 50)
Averaged from 33 records on July 28, 2013
WEATHER CONDITIONS BREAKOUT
WIND DIRECTION BREAKOUT
WEATHER BY HOUR - JULY 28, 2013
[ °C ]   °F
Local TimeTemperatureDewpointHumidityBarometerVisibilityWind DirectionWind SpeedGust SpeedPrecipitationEventsConditions
1:51 AM72.0 °F68.0 °F87 %29.96 in10.0 miSSE (150°)3.5 mphMostly Cloudy
2:40 AM71.6 °F68.0 °F88 %29.96 in8.0 miSSE (160°)3.5 mphPartly Cloudy
2:43 AM71.6 °F68.0 °F88 %29.96 in9.0 miSSE (160°)3.5 mphMostly Cloudy
2:51 AM71.1 °F68.0 °F90 %29.96 in9.0 miSSE (150°)3.5 mphMostly Cloudy
3:51 AM69.1 °F66.9 °F93 %29.96 in9.0 miSSW (210°)3.5 mphMostly Cloudy
4:51 AM71.1 °F68.0 °F90 %29.96 in10.0 miCalmMostly Cloudy
5:51 AM71.1 °F68.0 °F90 %29.96 in10.0 miCalmOvercast
6:51 AM71.1 °F68.0 °F90 %29.99 in10.0 miSSE (160°)5.8 mphMostly Cloudy
7:51 AM72.0 °F68.0 °F87 %29.98 in10.0 miSSE (160°)4.6 mphMostly Cloudy
8:51 AM73.9 °F66.0 °F76 %29.98 in10.0 miVariable4.6 mphOvercast
9:51 AM75.0 °F66.0 °F73 %29.97 in10.0 miSSE (160°)8.1 mphOvercast
10:51 AM75.9 °F66.9 °F74 %29.96 in10.0 miSSE (150°)9.2 mphMostly Cloudy
11:51 AM75.9 °F68.0 °F76 %29.96 in10.0 miSE (140°)10.4 mphOvercast
12:51 PM75.0 °F68.0 °F79 %29.97 in10.0 miSE (140°)10.4 mph18.4 mphOvercast
1:51 PM75.0 °F70.0 °F84 %29.96 in10.0 miSE (140°)11.5 mph0.00 inRainLight Rain
2:51 PM78.1 °F69.1 °F74 %29.94 in10.0 miSSE (150°)6.9 mph0.00 inMostly Cloudy
3:51 PM79.0 °F68.0 °F69 %29.93 in10.0 miSE (140°)11.5 mph20.7 mphMostly Cloudy
4:51 PM78.1 °F69.1 °F74 %29.92 in10.0 miSE (130°)12.7 mph19.6 mphMostly Cloudy
5:48 PM77.0 °F69.8 °F78 %29.94 in10.0 miSE (130°)6.9 mph0.00 inRain-ThunderstormLight Thunderstorms and Rain
5:51 PM75.9 °F70.0 °F82 %29.94 in10.0 miSSE (150°)5.8 mph0.00 inRain-ThunderstormLight Thunderstorms and Rain
6:26 PM75.2 °F71.6 °F89 %29.96 in7.0 miCalm0.05 inRainLight Rain
6:51 PM75.0 °F72.0 °F90 %29.95 in7.0 miNE (40°)8.1 mph0.10 inRainLight Rain
6:59 PM73.4 °F71.6 °F94 %29.96 in4.0 miNE (50°)6.9 mph0.02 inRain-ThunderstormThunderstorms and Rain
7:07 PM73.4 °F71.6 °F94 %29.96 in5.0 miEast (90°)6.9 mph0.04 inRain-ThunderstormThunderstorms and Rain
7:23 PM73.4 °F71.6 °F94 %29.97 in1.0 miVariable6.9 mph0.05 inRain-ThunderstormHeavy Thunderstorms and Rain
7:41 PM71.6 °F69.8 °F94 %29.97 in5.0 miCalm0.08 inRain-ThunderstormLight Thunderstorms and Rain
7:51 PM72.0 °F70.0 °F93 %29.96 in7.0 miCalm0.08 inRain-ThunderstormLight Thunderstorms and Rain
8:04 PM73.4 °F71.6 °F94 %29.95 in6.0 miESE (110°)5.8 mph0.01 inRainLight Rain
8:51 PM73.9 °F71.1 °F91 %29.95 in8.0 miSE (130°)5.8 mph0.03 inMostly Cloudy
9:51 PM73.9 °F71.1 °F91 %29.97 in8.0 miSouth (180°)4.6 mph0.00 inRainLight Rain
10:42 PM73.4 °F71.6 °F94 %29.98 in7.0 miSSE (150°)5.8 mph0.02 inRainLight Rain
10:51 PM73.0 °F71.1 °F93 %29.99 in7.0 miSouth (170°)8.1 mph0.03 inRainRain
11:51 PM72.0 °F70.0 °F93 %29.95 in10.0 miSouth (190°)3.5 mph0.06 inRainLight Rain
Hourly data recorded from KEWR, located miles away from Staten Island, New York







STORIES FROM OUR PARTNERS